Miscellaneous Local Product
Issued by NWS Hastings, NE

Home | Current Version | Previous Version | Graphics & Text | Print | Product List | Glossary On
Versions: 1 2 3 4 5 6 7 8 9 10 11 12 13 14 15 16 17 18 19 20 21 22 23 24 25 26 27 28 29 30 31 32 33 34 35 36 37 38 39 40 41 42 43 44 45 46 47 48 49 50
000
AXUS43 KGID 041702
MISGRI

GID CWA HOURLY WEATHER ROUNDUP
NATIONAL WEATHER SERVICE HASTINGS NE
1200 PM CDT TUE AUG 04 2015

NOTE: "FAIR" INDICATES FEW OR NO CLOUDS BELOW 12,000 FEET WITH NO
SIGNIFICANT WEATHER AND/OR OBSTRUCTIONS TO VISIBILITY.

...SOUTH CENTRAL NEBRASKA...

CITY           SKY/WX    TMP DP  RH WIND       PRES   REMARKS
GRAND ISLAND   PTSUNNY   75  65  70 E14       29.99F
HASTINGS       PTSUNNY   76  64  66 E15G26    29.98F
KEARNEY        PTSUNNY   75  63  64 E17       29.98S
ORD            MOSUNNY   76  62  62 SE14G21   29.95F
YORK           PTSUNNY   75  68  78 SE10      29.98F
AURORA         PTSUNNY   75  68  78 SE12      29.98F
LEXINGTON      PTSUNNY   76  67  74 SE17G25   29.97F
HOLDREGE       MOSUNNY   75  63  66 E18G24    29.98S
HEBRON         CLOUDY    76  66  70 SE14G20   29.97F

...NEBRASKA PANHANDLE...

CITY           SKY/WX    TMP DP  RH WIND       PRES   REMARKS
CHADRON        MOSUNNY   78  61  55 SE21G29   29.96R
ALLIANCE       MOSUNNY   68  62  81 SE16G25   30.02S
SCOTTSBLUFF    MOSUNNY   73  57  57 SE10      30.01S
SIDNEY         MOSUNNY   77  56  48 NE8       30.02F

...WESTERN AND NORTH CENTRAL NEBRASKA...

CITY           SKY/WX    TMP DP  RH WIND       PRES   REMARKS
VALENTINE      NOT AVBL
AINSWORTH      PTSUNNY   78  62  57 S24       29.92F
ONEILL         CLOUDY    73  65  75 S18       29.91F
BROKEN BOW     MOSUNNY   78  62  57 SE14G25   29.98F
IMPERIAL       CLOUDY    76  65  68 E14       29.96S
NORTH PLATTE   CLOUDY    68  64  87 E18G25    29.96F
MCCOOK         TSTM      69  67  93 E16       29.94F FOG

...EASTERN NEBRASKA...

CITY           SKY/WX    TMP DP  RH WIND       PRES   REMARKS
NORFOLK        CLOUDY    69  65  86 SE9       29.97F
SO SIOUX CITY  CLOUDY    72  63  73 SE12      30.00F
TEKAMAH        CLOUDY    70  64  81 NE8       29.98F
COLUMBUS       CLOUDY    70  63  78 E7        29.99F
ALBION         PTSUNNY   67  65  91 SE7       29.98F
OMAHA EPPLEY   CLOUDY    70  63  78 CALM      29.98F
OFFUTT AFB     CLOUDY    69  65  88 SE10      29.98S
MILLARD        CLOUDY    69  65  87 CALM      30.00R
LINCOLN        PTSUNNY   77  68  73 SE15      29.98F
NEBRASKA CITY  CLOUDY    73  68  84 E9        30.01F
BEATRICE       PTSUNNY   77  66  69 SE15      29.99F
FALLS CITY     PTSUNNY   76  68  76 E9        30.01F

...NORTHERN KANSAS...

CITY           SKY/WX    TMP DP  RH WIND       PRES   REMARKS
GOODLAND       MOSUNNY   83  62  49 SW5       29.95F
HILL CITY      MOSUNNY   86  66  51 S8        29.94R
NORTON         PTSUNNY   75  64  69 E9        29.94F
PHILLIPSBURG   CLOUDY    79  70  73 NE17      29.96R HAZE
SMITH CENTER   CLOUDY    75  66  73 E17       29.97R
HAYS           PTSUNNY   84  63  48 SW14      29.95R
RUSSELL        PTSUNNY   80  68  66 S15       29.93F
CONCORDIA      PTSUNNY   79  71  76 E15G22    29.95F
SALINA         PTSUNNY   87  68  52 S7        29.93F HX  90
TOPEKA         CLOUDY    83  72  69 E7        29.98F



USA.gov is the U.S. government's official web portal to all federal, state and local government web resources and services.